[[{"header":{"parameterUnit":"m.s-1","parameterCategory":1,"la1":30.2991,"la2":30.254,"lo1":-89.0895,"lo2":-89.0444,"dy":0.0017,"dx":0.0017,"nx":28,"ny":28,"refTime":"2023-08-28T03:00:00:Z","depth":0,"parameterNumber":2,"parameterNumberName":"U-component_of_WINDS"},"data":[0,0,0,0,0,0,0,0,0,0,0,0,0,0,0,0,0,0,0,0,0,0,0,0,0,0,0,0,0,0,0,0,0,0,0,0,0,0,0,0,0,0,0,0,0,0,0,0,0,0,0,0,0,0,0,0,0,0,-1.9221,-1.922,0,-1.9109,-1.9108,-1.9107,-1.9042,-1.9042,-1.9042,-1.9041,-1.8924,-1.8921,-1.8918,0,0,0,0,0,0,0,0,0,0,0,0,0,-1.9377,-1.9375,-1.9221,-1.922,-1.9218,-1.911,-1.9108,-1.9106,-1.9042,-1.9042,-1.9042,-1.9041,-1.8925,-1.8921,-1.8918,0,0,0,0,0,0,0,0,0,0,0,0,0,-1.9292,-1.9374,-1.9221,-1.9173,-1.9168,-1.911,-1.9108,-1.9106,-1.9042,-1.9042,-1.9041,-1.9041,-1.8926,-1.8922,-1.8917,-1.8898,0,0,-1.8904,-1.8902,0,0,0,0,0,0,0,0,-1.9297,-1.9286,-1.9182,-1.9177,-1.917,-1.9089,-1.912,-1.9036,-1.9042,-1.909,-1.9041,-1.9041,-1.8979,-1.897,-1.895,-1.8892,-1.8887,-1.8904,-1.8901,-1.8899,-1.8898,0,0,0,0,0,0,0,-1.9303,-1.929,-1.9177,-1.918,-1.9173,-1.9157,-1.9144,-1.9104,-1.9038,-1.9086,-1.9081,-1.9068,-1.8976,-1.8954,-1.8947,-1.8885,-1.8904,-1.89,-1.8897,-1.8896,-1.8806,-1.8806,0,0,0,0,0,0,-1.9317,-1.9296,-1.918,-1.9173,-1.9234,-1.9154,-1.914,-1.9116,-1.9038,-1.9026,-1.9069,-1.9066,-1.8962,-1.8952,-1.8942,-1.8913,-1.8899,-1.8895,-1.8893,-1.8805,-1.8806,-1.8806,0,0,0,0,0,0,-1.932,-1.9307,-1.9185,-1.9233,-1.9216,-1.9152,-1.9125,-1.9114,-1.9092,-1.9025,-1.9013,-1.9059,-1.8961,-1.8948,-1.8909,-1.8908,-1.8893,-1.8889,-1.8805,-1.8806,-1.8806,-1.8856,0,0,0,0,0,0,-1.9325,-1.9309,-1.9301,-1.9234,-1.9214,-1.9155,-1.9125,-1.9112,-1.9085,-1.908,-1.9013,-1.9001,-1.896,-1.8916,-1.8905,-1.8902,-1.8886,-1.8805,-1.8805,-1.8806,-1.8854,-1.8858,-1.8862,0,0,0,0,0,-1.9331,-1.9319,-1.9301,-1.9287,-1.9203,-1.9155,-1.9143,-1.9097,-1.9085,-1.9076,-1.9034,-1.9004,-1.8911,-1.8913,-1.89,-1.8895,-1.8805,-1.8805,-1.8806,-1.8853,-1.8857,-1.8861,0,0,0,0,0,0,-1.9386,-1.9309,-1.9288,-1.9254,-1.9212,-1.9144,-1.9131,-1.9103,-1.9062,-1.9059,-1.9002,-1.8988,-1.8954,-1.8921,-1.8924,-1.8872,-1.8855,-1.8853,-1.8895,-1.8899,-1.8902,-1.891,-1.8882,0,0,0,0,0,-1.9395,-1.9363,-1.9297,-1.9273,-1.9253,-1.9196,-1.9173,-1.9141,-1.9094,-1.9076,-1.903,-1.8985,-1.8945,-1.8921,-1.8881,-1.885,-1.8834,-1.8841,-1.8845,-1.8848,-1.8846,-1.8827,-1.8829,-1.8808,-1.8808,-1.8808,0,0,-1.9411,-1.9365,-1.9348,-1.9283,-1.9246,-1.9213,-1.9181,-1.9148,-1.9122,-1.907,-1.903,-1.8996,-1.8942,-1.8907,-1.8889,-1.8878,-1.8849,-1.8848,-1.8852,-1.8848,-1.8828,-1.883,-1.8831,-1.8808,-1.8808,-1.8808,0,0,-1.9425,-1.9387,-1.9363,-1.9328,-1.9273,-1.9235,-1.923,-1.9166,-1.9142,-1.9101,-1.9061,-1.9031,-1.8964,-1.8927,-1.89,-1.8901,-1.8871,-1.889,-1.8908,-1.889,-1.8892,-1.8893,-1.8892,-1.8893,-1.8889,-1.8889,-1.8889,0,-1.9452,-1.9401,-1.9354,-1.9323,-1.9295,-1.9248,-1.9223,-1.9191,-1.9125,-1.9107,-1.9096,-1.9013,-1.8973,-1.8928,-1.8929,-1.8909,-1.89,-1.8896,-1.8896,-1.8896,-1.8897,-1.8895,-1.8895,-1.8891,-1.8891,-1.8891,-1.8891,0,-1.9437,-1.9403,-1.939,-1.9329,-1.93,-1.9272,-1.922,-1.9197,-1.9168,-1.9132,-1.9091,-1.9043,-1.8992,-1.898,-1.8951,-1.8931,-1.8926,-1.8907,-1.8887,-1.8902,-1.89,-1.8899,-1.8895,-1.8894,-1.8893,-1.8893,0,0,-1.9479,-1.9395,-1.939,-1.9362,-1.9299,-1.9271,-1.9242,-1.9193,-1.9174,-1.9131,-1.9104,-1.905,-1.9032,-1.9001,-1.8967,-1.8952,-1.8955,-1.8934,-1.8932,-1.8938,-1.8929,-1.8943,-1.8944,-1.8936,-1.8936,-1.8936,-1.8934,0,-1.9482,-1.9427,-1.9384,-1.9345,-1.9312,-1.9268,-1.9242,-1.92,-1.9166,-1.9133,-1.9095,-1.9057,-1.9036,-1.9017,-1.9,-1.8958,-1.8952,-1.8958,-1.8909,-1.8908,-1.8922,-1.8942,-1.8957,-1.8957,-1.8933,-1.8932,-1.8932,0,-1.9477,-1.9437,-1.9395,-1.9336,-1.932,-1.9298,-1.925,-1.9219,-1.9171,-1.9147,-1.9114,-1.908,-1.9046,-1.9032,-1.8984,-1.8989,-1.8967,-1.8944,-1.8943,-1.8934,-1.8919,-1.8933,-1.8956,-1.8955,-1.8931,-1.8931,-1.8931,0,-1.9511,-1.9447,-1.9412,-1.939,-1.9321,-1.9306,-1.9276,-1.9228,-1.9201,-1.916,-1.9142,-1.9098,-1.9072,-1.9038,-1.8993,-1.8987,-1.895,-1.8932,-1.8928,-1.8929,-1.8919,-1.892,-1.8937,-1.8909,-1.8909,-1.8909,-1.8909,0,-1.9517,-1.9493,-1.9427,-1.9406,-1.9377,-1.9328,-1.9301,-1.9267,-1.9225,-1.9196,-1.9156,-1.913,-1.9072,-1.9039,-1.9004,-1.8969,-1.8958,-1.8937,-1.8928,-1.894,-1.8942,-1.8923,-1.8921,-1.8909,-1.8909,-1.8909,-1.8909,0,-1.9549,-1.9504,-1.9464,-1.9402,-1.9386,-1.9367,-1.9314,-1.9291,-1.9256,-1.922,-1.9209,-1.9153,-1.9112,-1.9064,-1.9007,-1.8983,-1.8951,-1.8938,-1.8967,-1.8961,-1.8959,-1.896,-1.8962,-1.896,-1.8936,-1.8936,-1.8936,0,-1.9555,-1.9535,-1.9472,-1.945,-1.9421,-1.9387,-1.936,-1.9313,-1.9287,-1.9231,-1.9215,-1.9172,-1.9134,-1.907,-1.9024,-1.898,-1.8965,-1.8969,-1.8958,-1.897,-1.8963,-1.8964,-1.8961,-1.8971,-1.8972,-1.8972,-1.8972,0,-1.957,-1.9549,-1.9513,-1.9469,-1.9439,-1.9402,-1.9363,-1.9347,-1.9292,-1.9264,-1.9222,-1.9193,-1.9136,-1.9093,-1.9043,-1.9012,-1.8982,-1.8977,-1.8973,-1.8984,-1.9001,-1.899,-1.8973,-1.8976,-1.8976,-1.8976,-1.8975,-1.8975,-1.9587,-1.9568,-1.952,-1.9481,-1.9447,-1.9412,-1.9388,-1.9351,-1.9315,-1.9265,-1.9239,-1.9197,-1.915,-1.9081,-1.9051,-1.9018,-1.9008,-1.9003,-1.9001,-1.9,-1.9003,-1.9009,-1.9009,-1.9009,-1.9008,-1.9008,-1.9008,0,-1.9599,-1.9567,-1.9532,-1.9479,-1.9448,-1.9426,-1.9382,-1.9357,-1.9321,-1.9281,-1.9245,-1.9196,-1.9155,-1.9106,-1.9061,-1.9043,-1.9029,-1.9033,-1.9033,-1.9026,-1.9015,-1.9022,-1.9046,-1.9046,-1.9046,-1.9046,-1.9046,-1.9046,-1.9601,-1.9566,-1.954,-1.9488,-1.9456,-1.9415,-1.9392,-1.9359,-1.9326,-1.9275,-1.924,-1.9209,-1.9165,-1.9117,-1.9077,-1.9064,-1.9049,-1.9057,-1.9039,-1.903,-1.9027,-1.9023,-1.903,-1.9054,-1.9054,-1.9052,-1.9052,-1.9052]},{"header":{"parameterUnit":"m.s-1","parameterCategory":1,"la1":30.2991,"la2":30.254,"lo1":-89.0895,"lo2":-89.0444,"dy":0.0017,"dx":0.0017,"nx":28,"ny":28,"refTime":"2023-08-28T03:00:00:Z","depth":0,"parameterNumber":3,"parameterNumberName":"V-component_of_WINDS"},"data":[0,0,0,0,0,0,0,0,0,0,0,0,0,0,0,0,0,0,0,0,0,0,0,0,0,0,0,0,0,0,0,0,0,0,0,0,0,0,0,0,0,0,0,0,0,0,0,0,0,0,0,0,0,0,0,0,0,0,3.1075,3.1076,0,3.117,3.1171,3.1173,3.1225,3.1226,3.1226,3.1226,3.132,3.1322,3.1324,0,0,0,0,0,0,0,0,0,0,0,0,0,3.0933,3.0936,3.1074,3.1076,3.1077,3.117,3.1172,3.1173,3.1225,3.1226,3.1226,3.1226,3.1319,3.1322,3.1324,0,0,0,0,0,0,0,0,0,0,0,0,0,3.1008,3.0936,3.1074,3.1114,3.1119,3.117,3.1172,3.1173,3.1225,3.1226,3.1226,3.1226,3.1318,3.1321,3.1325,3.1342,0,0,3.1336,3.1337,0,0,0,0,0,0,0,0,3.1004,3.1013,3.1107,3.1112,3.1117,3.1186,3.1156,3.123,3.1225,3.1185,3.1226,3.1226,3.1275,3.1282,3.1299,3.1346,3.135,3.1336,3.1338,3.134,3.1341,0,0,0,0,0,0,0,3.0999,3.1009,3.1112,3.1109,3.1115,3.1126,3.1137,3.117,3.1227,3.1188,3.1192,3.1203,3.1277,3.1296,3.1302,3.1352,3.1336,3.1339,3.1341,3.1342,3.1418,3.1418,0,0,0,0,0,0,3.0988,3.1005,3.1109,3.1115,3.106,3.1129,3.1141,3.1164,3.1227,3.1237,3.1203,3.1205,3.129,3.1298,3.1305,3.133,3.134,3.1343,3.1345,3.1418,3.1418,3.1418,0,0,0,0,0,0,3.0984,3.0996,3.1105,3.1061,3.1076,3.1131,3.1156,3.1165,3.1184,3.1238,3.1248,3.1212,3.129,3.13,3.1333,3.1334,3.1344,3.1348,3.1418,3.1418,3.1418,3.1379,0,0,0,0,0,0,3.098,3.0995,3.1003,3.1061,3.1078,3.1132,3.1156,3.1167,3.119,3.1194,3.1249,3.1258,3.1291,3.1327,3.1336,3.1339,3.135,3.1418,3.1418,3.1418,3.138,3.1377,3.1375,0,0,0,0,0,3.0975,3.0987,3.1003,3.1015,3.1089,3.1132,3.1142,3.1181,3.119,3.1198,3.1233,3.1256,3.1332,3.133,3.1341,3.1344,3.1418,3.1418,3.1418,3.1382,3.1378,3.1375,0,0,0,0,0,0,3.0925,3.0995,3.1014,3.1045,3.1083,3.1141,3.1152,3.1176,3.121,3.1213,3.1258,3.127,3.1298,3.1325,3.1321,3.1365,3.1378,3.138,3.1347,3.1344,3.1341,3.1334,3.1353,0,0,0,0,0,3.0919,3.0949,3.1008,3.103,3.1048,3.1097,3.1117,3.1144,3.1184,3.1199,3.1237,3.1273,3.1306,3.1326,3.1359,3.1384,3.1397,3.1392,3.1389,3.1387,3.1388,3.1404,3.1403,3.1417,3.1417,3.1417,0,0,3.0904,3.0946,3.0962,3.1021,3.1053,3.1083,3.111,3.1139,3.1161,3.1203,3.1237,3.1266,3.131,3.1339,3.1354,3.1362,3.1387,3.1387,3.1384,3.1387,3.1404,3.1402,3.1401,3.1417,3.1417,3.1417,0,0,3.0893,3.0928,3.095,3.0982,3.1031,3.1064,3.1069,3.1125,3.1146,3.1181,3.1213,3.1239,3.1294,3.1324,3.1347,3.1348,3.137,3.1357,3.1343,3.1358,3.1357,3.1356,3.1357,3.1356,3.1358,3.1357,3.1357,0,3.0868,3.0915,3.0958,3.0987,3.1012,3.1053,3.1076,3.1104,3.1161,3.1176,3.1185,3.1255,3.1288,3.1325,3.1325,3.1342,3.1349,3.1351,3.1354,3.1353,3.1353,3.1354,3.1355,3.1356,3.1356,3.1356,3.1356,0,3.0883,3.0915,3.0927,3.0983,3.1009,3.1034,3.108,3.1101,3.1126,3.1157,3.1192,3.1232,3.1275,3.1285,3.1309,3.1326,3.133,3.1345,3.1359,3.1349,3.1351,3.1352,3.1353,3.1354,3.1354,3.1355,0,0,3.0843,3.0923,3.0927,3.0953,3.101,3.1035,3.1062,3.1105,3.1122,3.1159,3.1183,3.1229,3.1244,3.1269,3.1297,3.131,3.1309,3.1324,3.1326,3.132,3.1331,3.1319,3.1319,3.1324,3.1324,3.1325,3.1327,0,3.0841,3.0893,3.0933,3.0969,3.0999,3.1039,3.1063,3.11,3.113,3.1159,3.1191,3.1223,3.1241,3.1256,3.1271,3.1306,3.1312,3.1306,3.1346,3.1347,3.1334,3.132,3.1307,3.1308,3.1328,3.1328,3.1328,0,3.0845,3.0883,3.0923,3.0978,3.0992,3.1013,3.1055,3.1083,3.1125,3.1146,3.1175,3.1204,3.1233,3.1245,3.1286,3.1281,3.13,3.1319,3.132,3.1326,3.1337,3.1325,3.1309,3.1309,3.133,3.133,3.133,0,3.0813,3.0873,3.0906,3.0926,3.0991,3.1005,3.1032,3.1075,3.1099,3.1135,3.1151,3.119,3.1211,3.124,3.1278,3.1283,3.1315,3.133,3.1333,3.1332,3.1338,3.1338,3.1325,3.1349,3.1349,3.1349,3.1349,0,3.0806,3.0829,3.0892,3.0912,3.0939,3.0984,3.1009,3.1039,3.1077,3.1103,3.1139,3.1162,3.1211,3.124,3.127,3.1299,3.1308,3.1326,3.1333,3.1323,3.1321,3.1336,3.1337,3.135,3.135,3.1349,3.1349,0,3.0774,3.0818,3.0856,3.0914,3.093,3.0947,3.0997,3.1017,3.1049,3.1081,3.1091,3.1141,3.1177,3.1218,3.1267,3.1287,3.1315,3.1326,3.1301,3.1305,3.1307,3.1306,3.1304,3.1306,3.1328,3.1328,3.1327,0,3.0768,3.0787,3.0848,3.0869,3.0895,3.0928,3.0952,3.0997,3.1021,3.1071,3.1085,3.1124,3.1158,3.1213,3.1253,3.129,3.1303,3.13,3.1309,3.1298,3.1304,3.1302,3.1305,3.1297,3.1297,3.1296,3.1296,0,3.0751,3.0772,3.0807,3.0849,3.0878,3.0913,3.0949,3.0963,3.1015,3.104,3.1078,3.1104,3.1155,3.1193,3.1236,3.1263,3.1288,3.1293,3.1296,3.1285,3.127,3.1279,3.1294,3.1293,3.1293,3.1293,3.1293,3.1294,3.0732,3.0751,3.0798,3.0835,3.0868,3.0901,3.0923,3.0959,3.0992,3.1038,3.1062,3.1099,3.1142,3.1202,3.1228,3.1258,3.1266,3.127,3.1271,3.1272,3.1269,3.1265,3.1266,3.1266,3.1266,3.1266,3.1266,0,3.0718,3.075,3.0784,3.0835,3.0864,3.0887,3.0928,3.0951,3.0984,3.1022,3.1055,3.1099,3.1136,3.118,3.1219,3.1235,3.1247,3.1244,3.1243,3.1249,3.1259,3.1253,3.1233,3.1233,3.1233,3.1233,3.1233,3.1233,3.0714,3.0748,3.0774,3.0824,3.0856,3.0894,3.0916,3.0947,3.0978,3.1025,3.1057,3.1086,3.1126,3.1169,3.1204,3.1216,3.1229,3.1222,3.1237,3.1245,3.1248,3.1251,3.1246,3.1224,3.1224,3.1225,3.1225,3.1225]}]]